Theta_e
315 314 317 320 323 322 326 332 333 330 325 320 318 321 318 321 324 320 321 319 319 319 318 324 326 322 323 327 328 331 332 338 339 329 330 336 336 338 338 337 337 336 336 337 337 338 337 339 339 338 338 338 338 337 337 337 335 335 333 331 329 325 322 321 317 318 327 332 333 332 331 330 330 331 331 332 332 332 334 333 331 331 328 326 328 329 329 330 330 330 330 330 330 330 328 328 328
315 317 321 323 323 320 327 337 336 327 323 317 316 322 318 318 322 321 323 321 320 318 320 328 330 327 329 333 333 329 328 333 333 329 334 336 338 339 337 337 337 336 336 337 338 337 337 338 339 338 338 338 338 337 337 336 335 334 332 331 329 325 323 321 317 317 325 331 333 333 333 332 332 332 331 332 331 332 333 333 331 330 328 327 329 329 329 329 330 330 330 331 330 330 329 329 328
316 320 324 324 323 324 332 336 333 326 321 318 318 324 319 318 323 323 325 322 318 319 323 327 327 326 329 332 330 326 327 333 336 333 336 337 338 338 337 337 336 336 335 337 338 337 337 337 338 339 338 338 337 337 337 336 335 333 332 330 327 324 323 322 319 317 323 329 332 331 331 331 330 331 332 332 332 333 333 333 331 328 326 327 328 329 329 329 329 330 331 331 330 330 330 329 328
317 323 324 324 328 332 338 334 334 329 321 321 319 322 326 325 324 324 325 321 317 319 322 322 322 320 325 332 329 330 334 336 338 336 338 338 338 338 337 336 336 336 334 336 337 337 336 336 338 338 338 338 336 337 336 335 334 333 331 329 327 324 322 323 320 318 322 327 330 331 330 330 329 331 333 332 333 333 332 331 330 328 327 328 328 328 328 329 329 330 330 330 329 330 330 329 327
320 323 321 323 331 333 331 325 330 326 317 323 319 320 336 333 325 324 321 320 318 319 321 323 327 322 324 332 330 333 336 337 338 336 339 338 338 338 337 337 336 335 335 335 336 337 337 337 339 338 338 337 336 336 336 335 333 332 331 329 326 323 322 323 321 318 321 325 330 332 331 332 331 332 332 331 331 332 331 330 329 328 326 327 327 327 328 329 329 329 330 329 329 329 329 328 326
322 323 323 321 321 324 326 318 320 323 321 325 322 323 334 331 324 324 319 318 319 318 320 322 328 329 332 332 328 332 334 337 339 337 338 339 340 338 337 336 336 335 335 334 334 336 336 338 338 338 338 337 336 336 336 335 333 332 330 329 326 324 323 324 323 319 319 321 327 331 332 332 331 330 330 330 330 331 330 329 328 327 325 325 326 327 328 328 328 329 329 330 330 328 328 327 327
321 322 327 326 321 323 330 324 322 326 320 319 326 328 328 326 322 322 320 319 318 317 318 320 326 329 330 329 327 330 332 334 336 338 339 339 340 339 338 336 336 336 335 334 333 334 336 337 338 338 337 337 336 336 336 335 333 331 330 329 327 325 324 324 324 322 319 317 321 328 331 331 330 329 330 331 331 331 329 328 328 326 325 325 327 328 328 328 328 328 329 329 329 328 327 327 327
322 324 329 333 328 328 330 324 325 327 317 315 323 327 325 324 321 320 321 320 319 318 318 321 324 326 324 326 331 331 331 333 335 339 339 340 340 340 339 336 336 336 335 334 333 334 335 336 338 338 337 337 336 336 336 334 332 331 330 330 329 327 326 325 325 324 321 318 317 322 327 329 329 330 330 331 331 330 329 328 327 326 325 326 326 327 327 327 328 328 329 328 328 327 327 327 327
320 322 327 329 325 329 329 318 318 321 319 320 319 323 323 320 319 320 321 319 318 319 317 320 320 320 323 329 336 332 332 335 335 339 339 340 340 339 338 336 336 336 335 334 334 334 336 337 338 338 337 337 336 337 336 334 332 331 330 330 330 329 327 326 325 325 323 319 317 316 320 324 327 329 328 328 329 329 328 328 327 325 325 326 325 326 327 327 327 328 328 327 327 327 326 326 326
322 322 325 330 327 324 320 315 319 321 318 321 320 323 321 318 319 317 320 319 318 318 316 318 321 325 326 333 338 331 332 335 335 339 340 340 339 339 338 336 336 335 335 334 334 334 337 338 338 338 337 337 336 336 336 334 332 331 330 330 330 330 328 326 326 326 324 321 318 316 316 319 324 326 326 327 328 327 328 327 326 325 325 325 325 326 326 327 327 328 327 326 326 326 325 325 325
330 328 329 331 330 323 318 318 323 326 319 319 320 320 319 318 318 316 319 318 317 319 316 316 324 334 331 334 337 330 331 334 336 339 340 340 340 340 339 337 336 334 335 334 335 335 336 338 338 338 337 337 337 337 336 334 332 330 329 330 330 330 329 327 326 326 325 322 319 317 317 318 321 323 324 326 327 327 327 327 326 325 325 325 325 325 325 326 326 327 327 326 325 325 324 324 325
327 330 339 333 327 324 325 323 321 326 320 319 320 318 317 316 316 317 318 318 318 320 319 315 321 333 334 336 334 328 332 335 336 339 340 340 340 340 340 339 337 335 336 335 335 335 335 337 338 338 337 337 336 337 336 334 333 331 330 331 331 331 330 328 327 327 327 324 320 318 318 320 321 322 322 323 326 327 327 326 326 325 325 325 325 325 325 326 326 327 326 324 323 323 323 323 324
334 333 337 324 321 323 323 322 319 323 320 321 321 316 315 314 317 320 321 320 320 320 318 315 321 331 334 335 333 330 333 336 336 338 339 340 341 341 340 339 339 338 339 336 335 335 335 336 338 338 338 337 337 337 336 335 333 332 331 331 331 330 330 329 328 327 328 326 322 319 319 320 320 320 318 318 324 326 325 326 326 326 325 325 325 325 325 325 326 326 324 322 321 321 322 322 322
338 340 336 320 320 324 323 321 318 319 320 324 321 315 314 315 317 319 321 320 320 321 315 313 322 332 330 329 336 337 335 335 336 337 338 340 341 341 340 340 340 340 341 339 336 335 335 335 337 338 338 338 337 337 336 335 333 332 330 330 330 329 329 329 329 328 328 327 325 322 320 318 316 314 312 313 319 321 322 326 326 325 324 325 325 325 325 325 325 324 322 320 320 320 319 320 320
329 341 341 327 321 321 321 320 321 321 321 323 318 315 315 313 314 317 320 321 321 316 311 311 316 321 324 327 336 339 334 334 336 336 337 339 339 340 340 340 341 340 341 341 339 336 335 334 335 337 338 337 337 337 336 335 334 331 329 329 329 329 328 329 329 329 328 328 326 324 321 320 316 311 307 308 311 313 319 325 325 323 323 325 325 324 324 324 324 323 321 320 320 319 318 318 319
331 341 334 325 319 317 318 318 320 321 321 321 315 314 316 312 313 316 315 318 318 314 316 314 314 317 322 326 326 326 330 335 335 336 336 337 338 339 339 340 340 341 341 341 340 338 336 335 334 335 337 338 337 337 337 336 335 331 328 328 329 329 329 329 330 329 329 329 327 325 323 322 320 313 307 305 306 308 316 322 323 322 321 324 324 323 323 324 324 322 320 320 320 318 317 317 319
330 338 331 323 321 318 317 318 319 321 323 321 315 315 318 314 313 313 310 315 317 317 322 318 318 325 328 329 322 321 331 335 334 335 335 336 337 338 339 339 339 340 341 341 341 339 337 335 334 334 336 337 337 337 337 336 335 331 327 327 330 331 330 329 329 330 330 330 328 326 324 323 321 317 310 306 305 306 312 319 321 319 319 321 322 322 323 323 323 321 320 320 320 319 318 318 319
327 335 330 324 328 323 321 323 320 320 322 319 316 317 319 316 315 313 312 316 317 316 320 320 324 327 326 327 324 324 333 334 334 335 335 336 336 338 339 339 338 339 341 341 341 340 338 336 335 334 335 336 336 337 337 336 336 332 325 326 331 332 331 330 329 330 330 330 329 327 325 323 322 320 315 310 308 307 310 315 318 317 318 319 320 322 323 322 321 320 319 320 320 319 319 319 320
332 333 324 331 339 324 321 324 318 317 319 318 316 316 317 317 316 314 315 316 316 316 317 320 326 330 329 327 325 328 332 333 334 334 334 335 336 337 339 339 339 339 340 341 341 340 339 337 335 334 334 334 336 336 336 336 336 333 326 325 330 332 332 331 329 329 330 331 330 328 326 324 322 322 318 314 311 310 310 312 313 314 317 319 320 321 321 320 320 319 320 320 320 320 320 320 320
329 329 321 335 342 323 319 321 317 316 316 318 317 314 315 315 315 313 316 317 315 318 318 319 323 336 338 328 326 330 331 332 332 333 333 333 336 337 338 339 339 339 340 341 341 340 340 338 335 334 334 334 334 335 336 336 336 335 330 325 328 332 332 331 330 329 330 331 330 330 328 325 323 321 319 316 314 312 310 310 311 312 316 319 320 319 319 319 319 320 320 320 320 320 320 320 320
319 326 327 331 328 320 317 318 318 316 314 317 317 315 314 314 313 313 317 317 316 318 319 319 322 340 339 326 327 329 329 331 331 332 332 332 335 336 337 339 340 340 339 340 340 340 339 338 336 334 334 333 334 334 335 336 336 336 333 328 326 329 331 331 331 330 330 331 331 330 329 327 324 322 320 317 316 315 312 311 311 312 315 318 319 318 318 319 319 320 320 320 321 320 320 320 321
315 318 326 325 319 316 316 317 317 314 313 317 317 316 315 313 313 315 317 319 320 318 317 319 320 337 339 329 327 327 328 329 329 331 331 332 333 334 337 337 339 339 340 340 340 340 339 339 337 335 334 334 333 334 334 335 335 335 335 332 328 327 328 330 331 331 331 331 331 331 329 328 325 322 321 318 316 317 315 313 312 311 313 317 317 316 317 318 319 319 320 320 320 319 320 320 321
319 316 318 320 318 316 317 317 317 314 315 318 318 315 314 314 315 315 315 317 319 316 316 315 315 328 332 328 327 328 328 328 328 330 330 331 332 333 335 335 338 338 339 340 339 340 339 339 339 336 334 334 334 333 334 334 335 335 335 335 333 330 328 329 330 330 331 331 331 332 330 329 327 324 322 319 317 317 318 316 313 310 311 315 316 316 316 317 318 318 319 319 318 318 320 320 321
322 319 314 316 316 317 317 316 317 317 317 318 315 313 314 317 316 312 312 316 317 313 310 307 311 322 326 326 327 327 327 327 328 330 330 331 332 333 334 334 336 337 338 338 338 338 338 338 338 337 336 334 334 334 334 334 335 336 335 335 334 333 331 329 330 330 330 330 331 331 331 330 328 326 323 321 318 317 318 318 314 311 312 314 315 316 315 316 317 317 317 316 316 317 319 320 320
319 319 316 315 315 316 317 317 319 318 317 315 313 314 316 316 313 312 316 320 318 315 310 311 319 325 327 328 328 326 326 326 327 329 330 331 331 332 332 333 334 335 336 336 337 337 337 337 337 338 336 335 335 334 335 335 335 335 335 335 334 334 333 331 331 330 330 330 330 331 331 330 329 327 325 322 320 318 318 318 316 313 313 314 315 316 315 315 316 316 316 315 316 317 318 320 320
318 318 318 317 315 315 315 316 319 319 316 314 314 316 317 314 312 315 320 320 316 317 320 325 331 334 330 329 328 325 326 325 325 327 328 329 329 329 330 332 332 333 334 335 335 335 336 336 337 337 336 336 335 335 335 335 335 335 335 334 334 334 333 332 331 331 332 331 330 330 331 331 330 328 326 324 322 319 318 318 316 314 314 314 315 315 315 314 314 315 314 314 315 316 318 319 320
319 320 319 318 317 315 315 315 316 317 317 315 316 317 317 314 314 317 318 314 312 319 326 324 334 344 334 329 327 324 325 324 325 325 326 326 326 327 328 329 330 331 332 333 333 333 334 335 336 336 335 336 336 336 335 335 335 335 335 334 334 334 333 333 332 332 332 332 331 330 331 331 330 329 328 326 323 321 319 318 316 314 314 315 315 315 314 314 313 313 312 312 313 315 317 318 319
317 320 317 318 320 316 314 316 314 315 315 314 316 316 316 314 316 318 315 312 312 319 326 323 331 341 331 328 327 323 323 324 325 324 324 325 325 326 325 326 328 329 331 332 332 332 333 333 334 335 335 335 336 336 336 336 336 335 335 335 334 334 333 333 332 333 333 332 332 331 331 331 331 330 329 327 325 323 320 318 317 315 316 315 315 314 313 313 312 312 311 311 312 314 316 318 318
316 318 316 319 325 320 314 315 315 315 314 315 316 313 315 316 317 318 314 313 314 316 323 324 326 328 324 324 325 323 322 322 323 323 324 324 325 325 325 325 325 326 327 329 330 331 332 331 332 333 333 335 336 336 336 335 336 335 336 336 336 335 334 334 333 333 333 333 332 332 332 331 331 331 330 329 327 325 322 320 318 316 316 316 315 314 313 313 312 312 312 311 313 314 315 317 317
316 317 319 320 323 320 314 315 315 315 315 315 313 311 317 320 317 315 313 313 313 315 320 322 322 320 318 318 320 321 319 318 320 321 323 324 324 324 324 324 323 324 323 325 327 328 329 330 331 332 332 333 334 336 336 335 335 335 336 336 337 336 336 335 334 333 333 333 333 332 332 332 332 331 330 330 328 327 324 321 319 318 317 316 315 314 314 314 313 313 312 312 312 313 315 316 317
317 313 322 323 316 319 320 316 317 314 314 315 311 311 319 321 318 315 313 312 313 316 319 319 318 317 316 316 316 317 315 314 317 319 321 322 323 323 323 322 322 323 323 323 323 323 325 327 329 332 332 332 333 335 335 335 335 334 335 336 337 337 336 336 335 335 334 334 334 333 333 332 332 332 331 330 329 328 326 323 320 318 317 316 315 314 314 315 315 314 313 313 312 312 314 315 316
323 312 321 323 313 323 326 317 317 315 313 314 311 314 320 319 320 316 313 314 315 317 320 319 318 317 316 315 314 315 313 310 311 315 317 319 320 321 321 320 320 321 322 322 322 323 324 324 326 329 330 332 332 334 335 335 334 334 335 336 336 336 336 337 336 336 335 335 335 334 334 333 333 332 332 331 330 329 328 325 322 318 317 316 315 314 314 315 316 316 314 313 313 311 312 313 313
327 316 319 322 316 322 322 315 317 317 315 315 313 316 321 318 319 316 312 315 316 317 322 322 321 320 317 315 313 313 312 310 309 309 312 315 317 318 319 318 317 318 318 319 321 323 323 323 325 326 327 329 330 332 334 334 335 335 335 335 336 336 335 336 336 336 336 335 335 335 334 333 333 332 332 331 331 330 330 329 326 322 319 317 315 315 315 315 315 315 313 312 313 312 311 312 311
322 318 319 322 320 319 318 318 317 315 316 317 315 316 320 320 320 319 315 313 314 318 322 323 323 322 320 317 314 313 312 313 311 308 309 312 314 315 317 316 316 316 316 317 319 320 322 323 324 325 326 327 329 330 332 333 334 334 334 334 335 335 335 334 335 336 335 335 336 335 335 334 333 332 332 331 330 330 330 330 328 324 322 319 316 315 315 314 313 313 313 311 312 313 311 309 309
320 319 318 318 317 315 318 321 316 314 316 317 317 317 320 321 319 320 317 311 313 318 318 317 318 318 318 316 315 314 312 313 311 308 309 310 311 312 314 314 315 316 316 317 318 320 322 323 324 325 326 327 328 329 330 331 332 333 333 333 334 334 334 333 333 334 335 335 336 335 335 334 333 332 331 331 330 330 329 328 325 321 320 319 317 315 314 313 312 311 311 310 308 310 310 309 307
322 324 325 324 320 317 320 321 316 314 317 318 319 318 320 321 317 319 317 311 312 317 317 316 315 315 314 313 313 312 312 313 310 308 310 310 311 311 312 312 313 314 316 317 318 320 322 323 324 326 326 327 328 329 330 331 331 332 332 332 333 333 333 333 333 333 335 335 335 335 335 334 334 333 332 332 331 331 330 329 326 321 318 317 317 316 314 314 315 313 311 309 306 305 305 306 306
321 325 328 326 321 319 317 318 317 314 316 318 318 317 319 319 317 317 315 310 311 315 317 317 316 314 313 313 313 313 313 312 308 308 310 310 311 312 311 311 311 313 315 316 318 319 321 322 323 325 326 327 328 329 329 330 330 330 331 331 332 332 333 333 333 333 334 335 335 335 335 335 334 333 333 332 332 330 329 328 328 326 322 319 319 318 316 316 316 314 311 307 306 304 302 302 303
321 322 324 321 319 319 316 316 318 314 314 318 317 318 318 317 317 316 312 311 313 316 316 316 315 313 312 312 313 314 312 311 309 309 308 309 311 311 312 311 310 312 314 315 318 318 319 322 323 324 325 327 328 329 329 329 330 330 330 330 331 331 331 331 332 332 333 334 335 334 334 334 334 334 334 333 333 331 329 327 326 326 324 320 319 317 317 316 314 312 310 306 304 304 303 301 302
325 322 321 320 318 318 317 316 316 314 314 320 323 321 318 316 316 315 314 314 313 313 313 313 313 312 311 311 312 312 311 312 312 311 308 307 309 310 311 312 311 312 313 314 317 318 320 321 323 324 325 326 327 328 329 329 329 330 329 329 330 330 330 330 331 331 332 333 334 334 333 333 333 333 333 333 333 332 330 329 327 325 323 320 319 318 317 316 313 310 309 307 304 302 301 300 301
325 323 319 319 319 318 318 317 317 314 313 318 322 319 316 315 318 317 313 311 312 313 314 313 312 312 311 311 311 311 311 312 313 315 311 306 307 310 310 311 312 312 313 314 316 318 320 321 321 323 324 325 326 327 328 328 329 329 329 329 328 328 328 328 329 329 330 331 332 332 332 332 332 332 332 331 332 332 331 330 328 326 324 322 320 319 318 316 314 311 309 309 306 301 298 297 299
322 331 330 325 324 322 317 317 319 316 314 316 317 316 319 321 325 326 317 311 312 313 313 315 315 312 310 311 311 311 311 312 312 315 313 305 304 308 309 310 311 311 312 314 315 317 318 319 320 322 324 325 326 327 328 328 328 328 327 327 326 326 325 325 325 326 327 328 329 330 330 330 330 331 331 331 331 332 331 330 329 328 325 324 321 318 318 317 315 313 311 310 309 306 301 297 297
317 328 331 326 330 328 320 321 323 320 317 314 311 314 324 327 327 329 322 317 315 313 313 317 316 311 310 312 312 310 311 314 314 314 313 306 304 308 309 309 309 311 312 313 315 316 318 319 320 322 323 325 326 326 327 327 327 327 326 326 324 323 323 323 323 324 325 326 327 328 328 328 328 328 329 330 330 330 329 329 329 329 326 325 323 319 318 317 315 314 313 312 309 309 306 299 295
315 318 321 324 333 329 321 320 319 320 316 310 312 317 320 321 319 319 320 320 320 318 318 318 314 310 310 311 311 312 313 316 318 318 315 309 305 307 310 311 311 311 312 313 314 316 317 319 320 321 323 324 325 325 326 326 326 326 326 326 325 324 323 323 323 324 324 324 325 326 326 326 326 326 327 328 329 329 328 327 327 328 326 325 325 322 320 318 317 315 313 312 309 308 308 303 298
316 316 321 328 330 325 326 325 320 322 317 316 324 323 315 317 316 316 318 320 321 320 319 318 315 313 313 310 310 313 315 317 320 325 326 315 306 308 312 313 313 312 312 313 314 315 316 318 319 320 322 322 324 324 325 325 325 325 325 325 325 324 324 323 323 322 322 322 322 323 323 324 323 323 325 326 328 328 328 328 328 327 326 325 325 324 324 322 319 317 312 309 307 307 309 307 302
318 316 322 327 327 328 334 334 328 322 313 318 327 317 313 323 323 320 316 314 319 321 319 318 318 318 319 319 317 316 315 314 318 328 330 316 307 309 313 313 314 314 314 314 314 314 315 316 318 319 320 320 321 322 323 323 324 324 324 324 324 323 323 322 322 321 321 320 320 320 320 320 320 320 322 324 325 326 327 328 328 328 326 325 325 325 325 323 318 315 311 308 308 307 308 309 306
319 314 319 321 324 329 332 331 326 318 314 324 326 313 312 320 325 325 315 310 320 324 321 319 320 321 325 330 330 327 324 321 323 327 318 309 310 312 312 313 314 314 315 314 314 315 315 316 317 317 318 319 319 319 320 320 321 322 322 322 322 322 322 321 320 319 319 318 318 318 318 318 318 319 320 322 324 325 326 327 327 327 327 326 326 325 322 319 315 312 312 311 310 309 309 308 307
315 318 322 322 326 329 331 332 322 312 320 329 323 316 312 313 324 329 315 309 316 320 320 321 323 325 326 331 331 331 335 334 334 335 317 306 310 314 313 314 315 315 315 315 315 315 315 315 315 317 317 317 318 318 318 318 319 319 320 320 320 321 320 319 319 318 317 317 317 317 317 317 318 318 319 321 323 324 325 325 325 325 326 326 326 324 320 317 314 313 312 311 311 311 312 310 307
318 326 326 320 325 325 327 331 321 313 325 326 318 316 312 312 322 323 317 317 316 315 317 319 321 327 328 328 327 330 338 339 345 352 334 317 313 312 313 315 315 316 316 315 316 315 315 315 315 315 316 316 317 317 317 318 317 318 318 318 318 318 318 318 317 317 316 316 316 316 316 317 317 318 318 319 321 322 323 323 323 322 322 322 322 322 321 319 316 314 313 312 312 313 313 311 306
321 324 323 319 321 319 320 328 321 318 323 317 315 316 312 314 319 315 317 319 316 316 318 318 319 326 333 331 328 331 337 341 349 354 350 343 325 311 311 315 314 315 315 315 315 315 315 315 314 314 314 315 315 316 316 317 317 317 317 317 317 317 317 317 317 316 316 316 316 315 315 315 316 316 316 317 318 319 320 320 321 321 320 320 319 319 319 319 318 316 315 315 315 314 313 310 307
318 319 323 320 320 316 319 323 316 316 319 313 313 316 315 318 316 313 317 312 312 316 318 319 320 323 330 329 326 331 336 341 345 345 354 352 321 307 310 314 313 314 314 314 314 314 314 314 314 314 314 314 314 314 315 315 316 316 316 316 317 316 317 317 316 316 316 316 315 315 315 315 315 315 314 315 315 315 316 316 316 316 316 317 318 318 318 317 318 318 317 317 317 316 315 311 307
317 318 317 318 324 323 322 322 319 320 322 316 311 314 323 322 311 312 316 312 315 318 317 318 318 317 318 317 322 329 335 343 344 342 350 334 307 306 313 312 313 314 314 314 314 313 313 314 313 313 313 313 313 313 313 314 314 315 315 315 316 316 316 316 316 316 316 316 315 315 315 314 314 314 313 313 313 313 313 313 312 312 312 313 315 316 318 318 317 317 317 318 318 317 314 310 307
317 315 312 314 322 325 319 315 319 319 318 318 314 317 327 320 311 313 312 312 317 317 317 320 317 314 313 317 324 326 330 341 342 341 350 330 306 307 313 312 314 315 313 314 313 313 313 313 313 313 313 313 312 312 313 313 313 313 314 314 315 315 315 315 315 315 315 315 315 315 314 314 313 313 313 312 312 312 311 311 311 311 311 312 314 315 316 317 317 316 316 316 317 316 314 309 306
317 314 317 319 317 324 320 310 311 312 312 317 316 319 324 316 314 318 313 313 316 313 317 320 317 314 313 318 325 327 331 338 336 336 344 327 307 309 313 314 315 314 314 315 313 313 314 313 313 313 312 312 312 313 312 312 313 313 313 314 314 314 314 315 315 315 315 314 314 314 314 313 313 312 312 312 311 311 311 311 311 311 311 311 313 314 314 315 315 315 315 315 315 315 313 309 307
319 319 321 316 311 320 322 314 318 317 315 319 316 316 320 316 318 322 315 312 315 316 317 319 318 315 315 319 322 325 329 333 335 337 335 317 307 312 316 314 315 315 314 315 314 314 314 313 314 313 312 313 312 312 312 312 313 312 313 313 313 314 314 314 314 314 314 314 314 314 313 313 312 312 312 311 311 311 310 310 310 310 310 310 311 312 313 314 314 314 314 314 314 314 311 309 308
319 322 318 316 317 320 317 314 320 319 315 322 320 314 313 313 319 322 315 313 319 319 315 316 316 313 316 320 320 321 324 328 332 341 346 323 310 313 315 313 315 315 313 315 313 313 313 313 313 312 312 312 312 312 312 312 312 312 313 313 312 313 313 313 314 313 313 313 313 313 313 312 312 311 311 311 311 310 310 309 309 309 309 308 310 311 312 313 313 313 313 313 313 312 310 309 308
313 314 311 317 324 324 318 315 317 317 315 319 321 319 317 317 318 318 313 317 323 319 315 317 315 313 320 321 318 319 323 327 326 333 347 327 310 311 314 313 315 313 313 314 312 312 313 312 313 312 312 312 311 312 312 312 312 312 312 312 312 313 313 313 313 313 313 313 313 313 312 312 311 311 311 310 310 310 309 309 309 309 308 308 309 310 310 311 311 312 312 312 312 311 310 309 309
314 314 314 317 318 317 318 316 315 319 321 320 319 317 319 322 318 316 315 317 319 318 316 318 315 315 322 322 319 320 323 327 327 333 344 323 308 311 313 311 313 312 312 312 311 312 312 311 312 311 311 311 311 312 311 312 312 312 312 312 312 312 312 312 312 312 312 312 312 312 311 311 311 311 310 310 310 309 309 309 309 309 308 308 309 309 309 310 309 310 310 310 311 310 309 309 308
315 315 316 317 316 316 318 316 314 315 317 321 319 313 318 324 317 313 315 312 311 312 314 318 319 317 320 320 320 323 325 326 325 333 338 317 305 308 309 308 309 308 308 309 310 311 310 310 311 310 311 311 311 311 311 311 311 311 312 311 311 312 311 312 312 312 312 311 312 311 311 310 310 310 310 309 309 309 308 309 308 309 308 309 309 309 309 308 308 308 308 309 309 309 308 308 307
Wind_Speed
4 2 1 2 2 2 3 5 2 3 3 2 1 1 2 2 2 3 3 1 1 1 1 1 3 4 3 4 6 7 5 5 5 4 3 4 10 25 21 16 21 22 22 22 22 20 20 18 16 15 14 13 13 14 13 13 13 13 12 12 13 14 15 15 15 15 16 16 15 16 16 16 16 14 13 14 14 15 17 17 17 16 17 18 19 18 19 19 18 18 18 19 19 21 22 21 21
3 1 2 3 0 1 0 3 3 3 4 1 3 2 2 2 1 5 6 4 3 2 2 5 7 6 5 6 6 4 2 1 4 3 2 3 15 23 19 18 23 23 23 23 22 21 20 18 16 15 14 14 14 14 14 13 13 12 12 12 12 13 14 14 15 15 16 16 15 15 15 15 15 14 14 13 13 14 16 17 18 18 19 20 19 18 19 18 18 17 17 19 19 20 21 21 20
2 2 3 5 1 3 2 4 2 1 3 2 4 3 1 1 5 7 7 5 4 5 4 4 6 4 5 6 3 2 1 2 3 2 1 9 14 19 19 20 23 23 23 23 22 21 20 18 16 16 15 14 15 14 14 14 13 12 11 11 11 13 14 13 14 15 15 15 15 15 15 14 14 14 14 14 13 14 15 17 19 18 19 20 19 19 18 18 18 18 18 20 19 19 19 19 18
2 3 3 6 2 4 3 3 2 4 3 4 3 4 2 5 7 6 6 5 4 3 1 2 4 1 3 3 0 2 1 2 2 2 3 11 13 19 22 21 24 22 22 22 22 21 20 18 16 16 16 15 15 15 14 14 13 12 11 11 11 13 13 13 13 14 15 15 16 15 15 14 13 14 14 14 15 15 15 17 19 19 20 19 19 18 17 17 18 18 19 19 18 17 17 17 17
2 3 1 3 2 2 3 2 2 4 4 5 2 5 5 6 7 6 4 3 4 2 1 3 2 1 2 2 1 1 3 1 2 3 6 11 14 21 22 23 24 22 22 22 22 21 20 18 16 17 16 16 16 15 14 14 12 11 11 11 11 12 12 12 13 14 14 15 16 14 14 14 13 13 12 13 14 15 15 16 17 18 19 19 18 18 17 17 17 18 18 18 17 17 17 17 17
2 3 4 5 3 1 3 1 2 2 5 5 4 5 5 6 7 5 2 2 3 2 2 3 3 2 2 1 0 2 2 1 2 4 9 13 16 22 23 24 24 22 22 21 21 20 20 18 17 17 16 16 16 15 14 13 13 12 11 11 11 11 11 11 12 13 13 14 15 15 15 15 14 12 11 12 13 14 14 15 16 17 17 18 18 17 17 17 17 17 17 17 17 16 16 16 16
2 2 4 6 3 2 3 3 4 3 3 5 4 5 7 6 5 5 4 2 1 0 1 1 3 6 1 2 0 1 2 1 2 5 11 14 20 22 22 24 23 22 21 20 21 21 20 18 17 17 16 16 16 16 15 13 13 12 11 10 10 10 11 11 11 12 12 13 13 15 15 16 14 12 13 13 13 14 14 15 16 17 18 18 18 17 17 17 17 17 16 16 16 16 15 16 16
2 1 1 4 1 3 3 2 3 3 1 3 4 5 7 7 5 6 4 3 2 0 2 1 2 5 1 1 1 3 4 3 4 7 14 15 22 22 22 25 23 23 21 19 21 21 21 19 17 16 16 17 17 17 15 14 13 12 11 10 11 10 11 10 11 11 12 12 12 13 14 15 15 14 14 14 13 13 14 15 16 17 19 18 17 16 16 16 16 16 15 16 17 16 16 15 16
4 2 1 3 2 2 2 1 2 2 2 4 3 3 4 5 5 5 4 1 1 2 3 4 2 1 2 2 1 4 3 3 5 10 16 18 23 22 23 25 23 23 21 19 21 22 20 19 18 17 17 17 17 17 15 15 13 13 12 11 11 10 10 10 10 10 11 11 11 12 13 14 15 14 14 14 14 14 15 16 16 18 18 18 17 16 15 16 16 15 15 17 17 16 15 16 16
5 3 1 2 2 2 3 2 2 1 4 4 3 4 4 5 4 3 4 3 2 4 2 2 3 2 3 2 2 3 2 4 8 14 18 20 22 22 24 23 22 22 21 20 20 21 20 19 19 18 18 18 18 17 16 15 14 13 12 12 11 11 10 10 10 10 10 11 11 11 11 12 13 13 13 14 15 15 16 16 17 18 18 18 17 16 15 15 15 15 14 16 16 15 16 17 18
4 4 2 3 3 2 2 3 4 3 4 4 3 3 4 5 5 1 2 4 1 3 2 1 3 3 3 0 2 2 2 6 12 18 21 21 22 22 23 21 21 20 20 21 20 21 20 20 19 19 18 18 18 16 16 16 15 14 13 13 12 11 10 10 10 10 10 10 10 11 11 12 12 12 12 14 15 15 16 16 17 18 18 18 17 16 16 15 15 14 14 14 14 15 16 17 18
3 3 4 4 2 3 3 3 3 5 6 4 2 3 4 5 4 3 4 5 1 3 2 2 3 5 4 3 3 4 2 10 14 20 21 21 21 21 20 20 20 19 19 20 20 20 20 20 20 19 19 18 18 17 16 16 16 15 14 14 13 12 11 11 10 10 10 9 10 10 11 11 11 11 12 14 16 16 16 17 17 18 18 18 17 16 15 15 14 14 14 14 14 15 16 16 16
3 2 5 2 3 2 3 4 1 3 5 3 4 2 6 5 4 7 7 5 3 4 3 5 5 5 3 3 3 4 4 13 16 19 20 21 21 21 20 19 19 18 18 19 21 21 21 21 21 20 20 19 18 17 16 16 16 15 15 15 14 13 11 11 11 10 10 10 10 10 10 11 10 10 11 13 16 16 17 17 17 17 18 18 16 15 15 14 14 14 14 14 14 14 14 14 15
3 3 5 2 1 3 4 3 0 1 3 6 3 2 5 3 4 6 8 5 4 5 2 4 6 5 2 2 3 3 7 16 18 20 20 20 21 21 21 19 19 19 18 19 21 21 21 21 21 21 20 20 19 18 17 16 16 15 16 15 14 13 12 11 11 11 10 10 10 10 10 10 10 10 11 13 15 16 17 18 17 17 18 18 16 14 14 14 14 14 14 14 13 13 12 13 14
4 3 4 3 2 1 3 2 2 4 4 5 3 5 4 2 3 5 5 7 6 5 1 1 4 3 3 4 3 5 14 20 19 20 20 20 20 19 20 20 20 19 19 20 20 21 22 22 22 22 21 21 20 19 18 16 16 16 16 16 15 14 13 12 12 11 11 10 10 10 10 10 10 10 11 13 15 16 18 18 17 17 18 19 15 14 14 14 14 14 14 13 13 12 12 13 13
3 4 5 2 1 0 3 2 3 2 5 5 3 5 5 3 3 4 4 5 3 1 2 0 1 0 4 7 3 5 19 24 20 21 19 18 18 17 18 18 21 21 21 22 22 22 22 22 22 23 22 21 21 20 19 18 16 16 16 16 16 15 14 13 12 12 11 11 11 11 11 11 11 10 11 13 15 16 17 18 17 17 18 19 15 14 15 14 14 14 14 13 13 13 12 13 13
3 4 4 1 2 2 3 3 4 3 5 5 3 4 7 1 1 2 1 5 5 1 3 1 1 2 3 5 6 3 24 26 21 21 18 17 16 16 16 17 21 22 24 24 24 23 23 24 23 23 24 23 22 21 20 19 18 17 17 17 17 16 15 14 13 13 12 12 11 11 11 11 11 11 11 12 14 16 17 17 16 16 18 18 15 14 15 14 14 14 14 14 13 13 12 12 13
4 3 3 1 3 3 5 7 7 4 3 5 5 6 8 5 2 1 2 5 3 2 3 2 3 2 2 5 4 11 28 26 22 22 18 18 16 16 17 18 21 24 26 26 26 24 24 25 24 24 24 24 23 22 21 20 19 18 18 18 18 18 16 16 15 14 13 13 12 12 12 12 12 11 11 12 13 14 16 16 16 16 17 17 14 14 15 15 14 14 14 14 13 13 12 12 13
4 3 3 3 5 4 5 6 6 3 2 4 4 3 5 6 4 2 2 0 1 3 2 5 4 3 4 3 7 20 27 25 23 22 20 19 19 19 18 20 23 25 27 28 28 26 25 25 25 25 25 25 24 23 22 21 20 19 19 19 19 19 18 17 16 15 14 14 14 12 12 12 12 12 12 12 13 13 14 15 15 16 17 16 14 15 16 15 14 14 15 14 13 13 12 12 13
2 4 3 5 6 4 4 5 6 4 3 5 3 1 1 3 3 2 4 3 1 5 5 1 3 6 1 2 11 20 23 22 22 22 21 21 21 21 21 22 25 28 30 30 29 27 26 26 26 26 26 25 25 24 23 22 22 21 20 20 21 21 20 19 18 17 16 15 15 14 13 13 13 13 13 13 13 14 14 15 15 16 18 16 16 18 18 17 16 16 15 14 13 13 12 12 13
2 4 4 6 4 2 4 6 6 5 5 6 4 3 1 2 2 2 6 6 3 7 7 7 9 8 6 4 9 17 19 19 20 21 20 21 22 23 24 25 27 28 29 29 29 29 28 28 28 28 27 26 26 26 25 24 23 23 22 22 22 22 22 21 20 19 18 17 16 16 15 14 14 14 15 15 15 15 16 16 16 17 18 18 18 19 19 18 17 16 16 14 13 12 12 13 14
2 1 5 5 4 2 3 5 4 2 5 5 5 5 3 2 1 3 9 7 6 7 8 11 10 10 12 11 12 14 15 16 18 20 21 22 23 24 25 25 25 24 26 28 29 30 30 29 29 29 29 28 28 27 26 25 25 25 25 24 24 23 23 23 22 21 20 19 18 18 17 17 16 16 16 16 16 16 16 17 17 18 19 19 19 18 18 18 17 17 16 15 14 13 13 14 15
3 2 2 4 4 2 1 1 2 2 7 6 5 4 2 3 1 2 8 8 7 6 6 9 8 10 15 14 14 12 12 15 18 23 25 26 27 28 29 28 27 26 27 29 29 30 30 30 29 30 31 30 29 28 27 27 27 27 26 26 26 25 25 24 24 23 22 21 20 20 20 19 19 18 18 18 18 18 17 17 17 19 19 19 20 19 18 18 17 17 16 15 14 13 14 15 16
4 2 1 2 4 2 2 2 1 4 7 5 4 3 3 5 3 1 5 10 8 5 5 4 8 12 14 13 12 13 14 18 22 28 30 30 33 33 32 30 30 28 27 29 30 30 31 32 31 31 32 32 31 30 29 29 28 28 28 28 28 27 27 26 26 25 24 23 23 22 21 21 20 20 20 20 19 19 18 18 18 19 20 20 20 20 19 18 18 17 16 16 15 14 15 16 17
3 3 2 2 1 2 3 3 5 4 3 1 3 3 2 5 3 1 7 11 8 4 3 3 9 11 11 11 12 12 13 17 21 24 27 29 30 28 27 28 28 28 29 30 31 32 32 33 33 33 33 33 33 32 31 31 30 30 30 30 29 29 29 28 28 26 25 25 24 24 23 23 22 22 22 21 21 20 20 19 19 20 21 21 21 21 20 19 19 17 16 16 15 15 16 17 18
3 4 3 4 1 3 2 3 4 3 1 2 4 1 5 2 1 3 8 9 4 2 6 4 8 9 9 10 11 12 11 15 20 22 26 27 25 24 27 28 28 32 34 32 32 34 34 33 35 35 35 34 34 33 33 33 32 32 32 32 31 31 30 29 29 28 27 26 26 26 25 25 24 23 23 23 22 22 22 21 21 22 22 22 22 22 21 20 19 19 17 17 16 16 17 18 19
4 6 5 5 2 3 2 2 2 2 1 2 4 3 6 3 2 4 6 5 1 6 6 3 7 8 10 9 10 12 13 18 23 22 21 21 22 26 30 30 32 35 35 34 36 36 35 35 36 37 36 35 34 34 34 34 34 34 33 33 32 32 31 30 30 30 29 29 28 27 27 26 25 25 25 24 24 23 23 23 23 23 24 23 23 22 22 21 20 19 18 17 16 17 18 19 20
5 7 5 6 6 1 3 3 0 2 1 1 5 2 5 4 2 6 3 5 1 7 5 4 6 7 8 8 8 10 13 20 21 18 18 23 28 32 33 35 38 38 37 40 41 37 36 37 38 38 37 36 36 36 35 34 34 35 34 34 33 33 33 32 31 31 31 30 29 29 29 28 27 26 26 26 26 25 25 25 25 25 25 24 24 23 23 22 20 19 18 17 17 17 18 20 21
4 6 4 6 8 3 3 1 1 1 2 1 4 1 5 3 5 6 1 5 3 5 5 5 6 7 6 7 6 7 12 16 15 18 24 29 32 33 36 41 41 39 41 43 40 37 38 39 38 39 38 38 38 37 36 35 35 35 34 34 34 34 33 33 33 33 33 32 31 30 31 31 29 28 29 28 27 27 27 27 27 27 26 26 25 25 24 23 21 20 19 19 18 19 20 21 22
2 4 4 1 7 4 4 2 0 1 2 1 3 1 6 8 10 8 4 4 3 3 6 6 6 6 5 6 6 7 11 13 15 24 30 31 32 32 35 40 38 38 40 38 36 38 40 39 38 38 38 39 40 38 37 36 36 35 35 35 35 35 34 34 34 33 34 34 33 33 33 33 32 31 31 30 29 29 29 29 29 29 28 28 28 27 26 24 23 23 22 21 21 21 22 23 25
2 2 3 2 1 4 6 2 2 4 1 1 5 2 6 8 10 9 7 2 5 6 7 7 6 6 6 6 6 7 10 15 21 27 31 32 33 32 35 37 35 36 36 35 37 38 38 38 38 38 38 39 40 40 39 38 37 36 35 35 36 35 35 35 34 34 34 35 35 35 35 35 34 34 33 32 32 31 31 32 32 32 31 31 30 30 29 27 26 25 24 24 23 22 23 24 26
3 2 2 3 2 5 8 2 4 4 1 4 6 2 6 8 10 8 5 2 7 7 7 6 7 7 7 6 7 7 9 15 22 26 29 32 33 33 35 37 35 36 36 37 37 35 35 37 37 38 38 38 39 40 39 38 37 36 36 36 36 35 35 35 35 35 35 36 36 36 36 36 36 36 35 34 34 34 33 33 34 33 32 33 33 32 31 30 29 28 27 26 25 25 25 25 26
4 3 2 1 3 3 5 2 1 1 1 3 3 3 4 5 7 7 3 5 5 3 6 6 6 8 7 7 7 7 9 11 14 23 30 32 33 34 36 37 37 36 36 37 35 34 35 35 36 37 38 38 38 39 39 38 38 37 37 37 36 35 35 35 36 35 35 36 37 36 36 36 37 38 37 37 37 37 35 34 34 34 34 34 35 34 34 33 32 31 30 28 27 26 26 26 26
3 2 2 3 3 3 2 3 3 3 2 1 2 2 6 7 8 8 5 4 4 4 7 7 6 7 7 6 7 7 9 9 10 19 27 30 33 35 36 37 37 36 36 36 36 36 35 34 35 36 37 37 37 37 38 38 38 37 37 37 37 37 36 36 36 36 36 37 37 37 36 35 36 37 38 39 39 38 36 35 36 37 37 37 36 36 36 35 33 32 31 30 29 28 29 28 27
5 3 3 2 2 3 3 3 2 2 2 2 0 2 9 11 10 11 9 3 4 8 7 7 7 7 8 7 7 8 8 10 14 20 24 25 29 32 34 36 36 36 36 36 35 35 34 33 34 34 35 36 36 36 36 36 36 36 35 35 36 37 37 37 36 36 37 38 38 38 37 36 34 34 36 37 38 38 37 36 37 37 38 39 38 38 37 36 34 32 31 31 29 28 30 30 28
9 6 5 5 3 4 5 4 4 1 2 3 4 5 8 11 10 11 11 3 2 8 7 7 8 8 9 7 8 9 9 12 14 17 19 21 24 27 29 32 33 34 35 34 34 33 33 33 33 33 35 35 34 34 34 34 34 33 33 34 35 37 38 37 36 36 37 38 38 37 37 36 35 34 36 36 36 38 40 40 38 36 36 38 39 39 38 38 37 35 33 32 30 28 27 29 29
7 6 5 4 4 2 4 3 5 1 3 4 4 4 8 10 11 12 10 5 4 9 9 9 9 8 9 8 9 11 11 12 9 9 14 17 20 21 22 25 27 29 31 32 32 33 35 34 34 34 34 34 35 35 35 35 34 33 33 34 36 37 36 36 36 36 37 37 37 36 36 36 36 37 38 38 36 36 39 40 39 38 39 39 41 42 41 39 38 37 35 32 32 30 29 28 29
6 6 5 2 2 2 3 2 4 3 1 3 2 3 9 10 11 12 9 7 8 10 10 11 11 10 9 8 12 13 11 10 8 8 12 15 17 18 19 20 22 26 30 32 33 34 34 34 34 34 33 34 35 36 36 36 37 36 35 36 37 36 36 36 36 36 36 37 36 35 35 35 35 37 37 37 37 35 36 36 36 38 40 42 42 41 40 39 38 37 37 34 31 31 31 31 33
5 4 5 3 2 2 3 3 4 4 1 4 5 5 9 10 11 12 11 9 9 9 9 10 10 10 10 10 12 12 11 11 10 10 12 14 15 15 17 19 22 25 28 30 31 31 31 32 33 34 33 34 35 36 37 37 37 37 36 35 34 34 34 35 35 35 35 36 36 35 35 35 35 36 35 36 36 36 36 37 36 37 38 39 40 40 40 40 39 38 39 37 32 29 28 32 37
4 4 5 2 2 1 1 3 3 4 2 2 4 5 9 7 6 10 10 7 7 7 8 9 8 10 12 11 10 10 11 11 10 10 11 11 12 14 17 20 22 24 25 26 28 29 30 32 33 34 34 34 34 35 36 37 35 34 34 32 30 29 30 30 31 33 34 34 35 36 36 36 35 36 36 36 36 36 34 34 35 36 38 40 41 42 43 43 42 41 40 39 35 31 27 31 37
1 3 5 3 3 4 2 2 2 3 4 3 3 5 7 5 5 7 6 4 6 5 5 8 9 10 11 10 9 9 9 9 8 10 10 9 11 15 16 17 18 20 24 26 27 29 30 31 32 32 33 33 33 34 34 34 33 32 31 29 27 25 25 25 26 29 32 33 35 36 37 36 36 36 36 36 37 37 35 34 34 34 37 40 42 41 42 44 44 44 44 42 40 37 33 32 36
2 3 6 6 6 6 2 2 4 4 4 4 4 3 6 6 5 7 5 6 8 5 4 9 9 7 7 9 10 9 7 7 7 9 10 10 12 15 15 13 15 18 21 23 25 26 27 29 29 30 31 32 32 32 32 32 33 32 31 30 28 26 25 26 28 30 32 33 35 37 37 37 36 36 36 36 37 38 38 37 37 38 39 41 43 41 41 42 42 44 46 46 45 42 37 33 35
2 4 5 6 7 8 5 3 4 1 2 3 4 3 5 7 5 8 6 7 10 9 8 10 9 7 7 8 9 7 7 7 7 8 8 8 10 12 14 13 13 16 17 17 19 22 23 25 26 27 29 30 30 30 30 31 32 33 33 34 33 31 30 30 31 31 31 32 34 35 36 37 36 36 35 36 37 38 40 39 39 40 41 43 44 42 41 41 42 44 47 49 47 43 38 35 37
3 3 6 8 7 8 6 5 4 2 2 4 5 4 2 6 6 7 5 6 10 11 11 11 8 8 8 7 8 8 8 6 6 7 6 6 8 9 11 10 10 12 12 12 14 17 20 22 23 24 26 27 28 28 29 30 32 33 34 34 34 34 33 32 30 28 29 29 30 32 34 35 36 36 36 37 37 37 38 39 37 38 39 41 43 43 43 44 45 46 47 47 45 42 41 39 38
4 4 7 6 7 7 5 6 4 1 2 4 5 2 2 6 7 6 4 4 8 9 9 10 9 9 8 7 7 7 7 6 6 6 6 7 8 7 7 6 5 6 8 9 10 13 16 18 20 21 23 24 25 26 27 28 30 32 33 34 35 35 33 31 29 27 28 28 29 30 31 33 34 35 36 37 38 38 38 39 39 41 41 39 40 41 43 45 47 48 49 47 44 43 43 40 38
4 6 7 6 6 6 5 5 4 3 2 4 6 1 2 5 7 5 2 2 5 7 7 7 8 8 7 6 6 4 4 3 3 5 6 6 6 4 2 1 1 2 4 6 7 9 12 15 17 19 21 22 23 24 25 26 28 30 32 33 34 34 32 30 29 28 28 28 29 30 30 31 32 33 35 36 37 38 38 38 39 41 42 40 40 41 41 43 44 45 48 49 48 45 44 42 40
8 7 7 7 6 5 4 3 4 3 3 6 6 2 1 3 6 4 2 2 4 3 5 7 7 8 7 5 5 4 5 4 4 4 4 4 5 4 4 4 3 3 2 3 5 7 9 12 15 17 19 20 21 22 23 25 26 28 31 32 33 33 32 30 30 30 30 29 30 30 30 31 31 33 34 36 38 37 36 36 35 36 38 39 42 43 41 40 41 43 45 47 47 46 44 43 42
7 5 5 4 4 4 4 4 4 1 5 6 5 2 2 4 5 4 4 5 5 4 3 7 8 8 7 6 5 5 5 5 5 4 5 5 5 5 6 5 4 4 3 3 3 5 8 10 13 16 18 19 20 21 22 24 25 27 29 30 32 32 32 31 32 33 32 31 31 31 30 30 31 32 33 35 38 38 38 38 37 35 35 36 38 40 41 42 42 42 43 45 45 45 43 42 43
5 5 6 4 2 3 2 3 1 3 6 4 3 1 3 6 7 8 9 8 6 7 7 6 7 7 8 6 6 6 5 5 5 4 5 5 5 6 7 5 4 3 3 4 4 5 7 9 12 15 17 18 19 20 22 23 25 26 27 29 30 31 31 32 33 33 32 31 32 31 31 31 32 33 34 36 37 38 40 41 41 40 39 37 37 37 39 41 43 43 43 44 44 43 43 43 44
4 5 5 4 3 1 2 4 2 3 4 3 3 2 3 4 5 9 12 7 4 6 8 7 7 7 8 7 6 6 6 5 4 4 5 4 5 8 8 8 7 6 6 6 7 7 8 10 11 15 17 17 18 20 21 23 24 25 26 28 29 30 31 32 33 33 32 32 32 32 33 33 34 34 35 35 35 36 38 40 41 42 42 41 39 38 38 38 40 43 44 44 43 43 43 44 46
2 4 5 6 5 5 4 4 3 4 3 3 4 2 3 2 2 7 9 6 5 6 6 7 7 7 7 6 6 6 6 6 4 4 5 5 7 8 9 9 9 9 8 8 9 9 10 11 12 14 16 17 18 19 20 22 23 24 25 27 28 29 31 32 32 33 33 33 33 33 34 34 34 35 34 34 34 34 35 36 37 37 38 40 40 41 41 39 39 41 43 43 42 42 42 44 46
1 2 5 3 5 5 3 3 5 3 1 3 2 3 4 3 5 8 5 5 7 5 5 6 5 5 5 4 6 6 6 6 5 5 5 6 6 6 7 8 9 10 10 10 10 10 11 13 14 15 16 17 19 20 21 22 22 23 24 26 27 28 30 31 32 33 32 33 33 34 34 34 34 34 33 33 33 32 33 33 34 34 35 37 39 40 40 40 39 39 40 39 40 41 42 43 45
2 2 3 5 4 7 5 1 1 3 1 3 2 4 5 3 6 9 5 6 7 4 6 7 3 3 4 4 5 5 5 5 5 5 5 6 7 7 7 9 10 10 11 11 10 10 11 12 15 16 17 17 18 20 21 21 21 23 24 25 27 28 29 31 31 32 32 32 33 33 34 33 33 33 33 32 32 32 32 31 32 32 33 35 38 39 39 40 39 39 39 40 41 43 42 43 44
5 3 5 4 2 5 4 2 2 3 2 5 1 4 5 1 3 7 6 4 8 7 7 7 4 3 3 4 5 5 6 5 5 5 5 5 7 9 9 9 9 9 9 10 9 8 9 11 13 16 17 17 18 19 20 21 21 23 24 25 26 27 28 30 31 31 31 32 33 33 33 33 33 32 32 32 32 32 31 31 31 31 31 34 38 40 39 39 39 39 40 40 42 42 42 43 44
5 4 3 4 3 1 2 2 2 1 2 5 4 4 4 4 5 5 1 4 7 9 8 6 4 2 4 5 6 6 5 3 4 5 4 5 6 8 7 7 7 6 7 8 8 7 8 10 12 14 16 16 17 18 20 20 21 23 24 25 26 27 28 29 30 30 31 32 34 34 33 34 33 32 32 31 32 32 31 31 31 31 31 33 37 40 40 40 39 39 40 41 41 42 41 43 44
3 3 3 3 3 4 3 3 4 3 3 3 4 5 3 6 6 5 7 8 8 7 5 5 5 1 2 0 1 3 3 2 3 5 4 5 5 5 4 5 5 5 7 8 8 8 9 10 12 13 15 16 16 17 18 19 20 22 24 25 25 26 27 28 29 30 31 33 34 34 34 34 33 32 32 32 32 32 32 32 32 32 32 33 36 38 39 39 39 40 41 41 42 42 42 43 44
3 3 3 2 1 2 2 1 3 4 4 2 3 5 5 5 4 8 10 9 7 6 4 3 2 4 4 5 3 1 3 3 1 3 4 5 7 6 5 6 6 6 8 9 9 10 11 12 13 13 15 16 16 16 17 18 20 21 23 25 26 26 26 27 28 29 31 33 34 34 34 33 33 33 32 32 33 33 32 32 32 33 32 33 35 37 38 38 39 40 41 41 41 41 41 42 42
6 6 7 7 4 4 3 2 1 2 3 4 3 5 7 5 4 7 7 6 4 5 7 6 5 6 5 5 4 3 2 2 2 4 5 6 7 7 6 6 5 5 7 9 11 14 15 15 14 14 15 17 17 17 18 19 20 21 23 25 25 26 27 27 28 30 31 33 34 34 34 33 34 34 33 33 34 33 33 33 33 34 34 34 34 36 38 38 39 41 41 41 41 40 40 41 40
Wind_Direction
1 358 127 170 231 167 34 50 76 319 81 95 269 150 219 202 200 158 131 204 108 273 231 69 88 101 99 131 160 161 141 163 164 146 208 260 154 158 165 163 162 160 157 157 156 154 152 153 156 155 150 140 135 131 124 119 112 105 96 89 89 87 85 81 80 84 91 92 92 94 96 97 96 97 97 98 99 96 94 90 87 85 84 91 97 96 92 89 86 86 88 92 93 92 89 87 87
15 65 135 166 33 106 253 63 96 320 59 117 258 171 243 330 154 177 176 195 170 168 141 110 99 83 60 88 119 112 81 225 186 173 254 175 148 159 166 163 164 160 158 158 159 158 157 158 158 160 154 144 138 134 128 124 117 108 100 94 93 92 89 86 84 87 93 95 95 97 98 98 95 92 91 91 91 93 93 89 88 87 88 96 99 97 94 88 86 86 91 95 94 93 90 88 88
45 135 157 174 62 50 71 44 95 85 97 189 257 242 249 135 194 203 202 206 165 157 151 113 85 77 48 48 67 87 91 295 190 200 156 152 154 163 165 165 165 161 161 161 162 161 161 160 159 161 156 147 141 137 132 128 121 113 108 101 99 97 94 90 88 90 96 99 98 99 98 98 97 97 96 95 94 93 93 91 91 88 91 99 100 99 94 88 87 89 94 97 96 94 92 89 88
82 139 181 184 74 32 66 42 135 125 143 199 244 255 221 181 203 221 229 229 186 158 160 81 49 26 49 57 12 69 168 297 201 205 160 168 167 162 161 166 167 163 164 165 165 164 162 161 161 160 156 150 145 142 137 132 126 121 116 109 104 101 99 95 92 94 99 105 103 101 99 100 104 107 103 103 101 96 95 96 96 94 97 102 103 100 93 89 91 93 95 98 98 95 92 90 89
112 127 143 162 86 41 93 67 118 120 191 183 166 252 238 197 199 212 235 249 229 233 211 95 69 300 53 113 151 132 206 205 208 229 179 178 168 159 162 167 167 165 167 168 168 166 163 162 162 160 156 153 149 146 142 138 134 130 124 115 110 106 105 99 96 98 102 108 108 106 102 101 105 106 105 108 105 100 99 98 98 99 102 104 104 101 95 94 95 96 98 99 99 96 93 92 93
139 125 61 69 85 105 113 182 182 188 219 168 152 242 229 196 196 188 173 259 248 227 192 94 122 143 62 339 166 171 200 112 190 220 183 175 165 160 164 168 169 168 169 171 170 168 164 164 164 161 157 155 153 151 147 144 141 137 130 121 117 114 112 106 101 100 102 110 114 113 108 105 107 105 104 109 107 104 102 99 100 102 106 108 107 103 98 97 98 99 100 100 99 99 97 95 98
177 165 40 63 69 32 107 179 204 219 212 167 177 205 191 192 195 156 144 182 165 29 46 80 134 112 91 312 83 199 329 210 173 187 185 175 168 164 166 171 171 171 172 172 170 169 167 166 167 164 161 160 159 156 152 149 147 142 136 129 124 122 120 115 108 104 104 109 116 120 116 112 111 107 102 105 107 106 103 102 103 103 109 112 109 105 100 100 101 101 101 103 102 100 98 98 102
115 156 19 87 68 8 94 153 228 213 168 214 219 193 178 183 172 151 163 162 159 99 60 154 130 89 157 28 117 285 341 199 171 175 184 173 171 170 170 173 173 173 174 172 170 172 169 168 171 170 167 165 164 160 156 156 154 147 143 137 134 132 129 125 117 111 108 109 116 122 124 121 120 116 110 109 108 106 104 105 104 105 111 113 112 107 103 103 104 103 104 107 104 100 100 102 109
57 52 17 88 112 7 31 344 273 229 273 270 231 191 167 168 154 148 156 133 205 138 106 182 159 72 191 71 266 287 349 190 176 175 178 168 170 171 172 175 175 173 173 172 173 174 171 172 175 175 173 170 169 164 161 161 158 154 150 145 143 140 136 133 126 117 112 112 116 123 128 131 130 127 123 121 117 113 110 109 108 112 115 114 115 112 108 108 108 106 107 110 107 103 103 108 115
40 25 136 77 99 39 348 295 267 250 274 275 228 208 167 159 154 161 147 146 179 125 148 181 99 72 150 131 253 307 343 185 166 170 173 168 167 168 172 177 178 174 172 174 176 177 174 175 178 179 178 174 173 169 165 165 164 162 158 155 153 149 144 141 136 125 118 117 120 124 128 132 135 135 132 126 122 119 116 115 115 117 118 117 119 117 113 111 111 110 111 115 114 110 111 114 117
37 352 104 75 67 118 220 223 270 275 288 314 293 245 180 153 134 151 125 134 147 103 163 158 104 126 101 339 248 313 272 178 164 167 172 172 171 170 172 176 180 179 176 176 178 181 178 178 181 181 180 177 177 174 170 170 170 170 166 163 161 157 152 149 144 135 127 124 125 127 129 131 133 135 133 129 126 124 121 120 119 122 123 121 122 118 115 115 115 116 117 122 121 117 120 121 120
86 338 66 88 140 199 214 179 265 294 318 328 264 254 162 137 128 170 148 141 154 102 191 204 156 138 84 314 260 313 250 177 168 166 172 178 179 176 175 176 181 184 182 180 180 183 183 182 183 182 183 182 181 180 177 175 175 175 172 169 167 164 159 156 152 145 136 131 132 131 131 131 133 134 133 134 132 129 127 125 124 125 125 124 123 119 118 117 118 121 125 128 126 124 127 128 128
120 140 90 114 170 169 175 147 264 329 329 275 222 232 137 138 205 190 147 121 135 128 236 215 150 110 109 265 277 320 237 182 168 164 171 178 182 182 181 181 182 186 186 185 184 186 187 185 185 184 185 185 185 183 181 179 178 178 177 176 173 169 165 162 159 153 148 140 139 137 136 135 137 139 136 137 136 135 133 128 127 127 127 127 124 122 121 119 122 127 131 134 133 131 131 132 134
138 150 114 135 98 121 153 128 197 176 259 253 228 182 148 176 213 178 132 116 188 170 220 197 147 117 131 268 304 303 213 184 170 169 170 172 180 183 187 189 188 190 190 191 190 190 190 189 188 186 186 187 187 185 183 182 181 182 183 184 180 176 172 169 167 163 158 151 147 144 143 141 140 141 139 140 141 141 137 132 133 134 133 129 128 133 127 123 128 130 136 141 138 135 134 136 137
139 137 91 111 45 68 172 151 147 161 232 227 177 159 157 264 158 153 150 146 215 220 110 112 138 163 181 185 235 241 192 179 173 174 171 171 176 180 188 193 194 195 195 197 196 197 196 194 192 190 189 188 188 187 185 185 185 187 188 189 186 183 179 175 174 172 168 161 155 151 148 144 142 142 142 143 144 145 141 140 141 140 138 133 136 144 132 127 133 134 142 144 140 138 136 138 137
122 113 68 88 75 96 189 170 124 143 249 216 175 151 134 289 155 154 216 143 169 275 42 101 96 132 178 172 226 232 179 173 174 177 176 176 178 181 189 194 198 200 199 200 201 202 201 199 196 193 192 190 191 190 188 188 188 191 192 192 191 189 186 182 180 180 176 169 163 159 154 149 146 144 145 146 148 148 146 145 145 145 145 140 139 140 132 131 135 141 151 149 146 142 138 139 137
78 84 69 71 161 199 193 176 169 171 242 234 238 187 138 259 264 160 265 87 120 72 34 268 328 26 193 223 302 206 170 171 175 177 178 179 182 184 191 198 200 201 202 202 203 205 205 203 200 196 196 195 194 193 192 191 190 193 195 195 193 192 191 187 186 185 182 177 172 168 163 158 153 150 151 152 152 153 151 150 150 151 149 147 147 138 133 135 136 148 157 154 152 148 143 140 138
64 85 103 162 185 203 183 179 196 172 211 221 216 194 145 156 208 143 55 49 66 62 22 338 335 354 300 289 303 159 164 170 175 175 177 179 183 184 190 199 200 202 203 204 205 206 207 207 204 201 199 199 198 197 196 194 193 194 196 196 194 195 195 193 192 190 188 183 180 177 173 168 161 159 158 157 157 156 155 155 156 154 153 157 158 138 135 141 143 154 159 156 155 152 149 143 141
86 111 118 209 203 206 195 181 195 177 195 207 209 207 159 166 165 126 154 313 65 129 312 345 338 311 358 14 134 151 162 168 174 176 177 180 185 188 190 197 200 203 204 206 206 207 209 209 208 205 203 202 201 201 200 197 196 196 196 196 195 196 198 199 198 196 195 190 186 184 182 177 170 167 166 164 162 161 162 162 161 159 158 163 159 146 149 156 157 160 159 159 158 154 154 149 149
140 118 119 236 214 218 231 195 208 216 170 164 197 223 152 180 160 141 164 163 159 190 214 291 258 248 327 89 140 150 160 167 176 179 181 186 191 193 194 196 199 204 205 207 208 208 210 210 209 208 207 205 204 204 203 200 198 198 197 197 197 197 200 203 203 201 200 197 193 190 190 185 180 175 173 173 170 168 168 168 168 164 163 165 164 162 167 169 168 166 163 163 160 159 158 154 156
142 120 168 225 194 200 232 196 228 241 171 159 160 120 116 230 186 151 142 136 259 243 221 198 206 202 169 178 163 157 163 169 180 185 188 191 195 199 200 200 200 204 206 206 208 209 210 210 210 210 209 208 207 206 204 202 201 200 199 199 199 199 201 204 206 205 203 203 200 196 196 192 187 183 181 180 179 177 175 174 174 169 167 170 174 174 173 173 172 169 167 166 163 162 160 158 160
120 182 186 193 157 176 231 185 225 215 135 120 123 150 179 174 143 155 150 161 230 233 220 209 199 177 166 173 172 167 171 175 184 191 195 197 199 202 204 206 205 205 206 206 208 210 211 212 212 212 211 211 210 209 207 206 204 203 202 201 201 202 203 205 206 207 206 206 205 201 199 198 194 190 188 187 185 185 183 181 178 175 175 178 181 181 177 176 176 174 171 169 167 166 163 162 163
132 259 201 197 188 193 294 126 241 154 123 137 161 181 148 118 246 189 174 200 223 225 229 216 195 168 162 160 165 174 181 185 190 195 198 200 202 205 205 206 206 206 207 209 210 211 213 213 214 214 213 212 212 212 210 208 207 207 206 204 204 204 204 206 208 209 209 207 207 206 204 202 199 196 195 193 191 190 189 187 183 180 182 184 186 186 182 180 180 177 175 173 170 169 167 166 167
102 172 207 195 191 200 328 38 64 114 135 190 185 131 132 165 194 91 212 234 239 258 290 215 163 150 151 154 171 184 188 192 198 200 201 202 205 206 206 207 208 208 210 212 213 213 214 214 215 215 215 214 213 213 213 212 210 209 210 208 208 207 206 207 210 211 211 210 209 209 209 207 205 202 199 198 196 194 193 192 189 186 187 189 190 191 189 185 185 182 179 177 173 173 171 169 170
93 170 197 142 150 299 334 39 57 80 124 206 117 124 231 197 173 102 240 249 252 255 4 101 138 140 155 168 182 189 194 201 205 207 208 210 211 211 212 212 212 212 214 214 214 215 216 216 215 216 217 217 215 214 215 215 213 211 212 211 210 212 210 209 212 213 213 214 212 211 212 211 209 207 205 202 200 198 197 195 193 191 191 193 193 194 195 193 190 186 183 180 176 174 172 172 173
185 152 154 118 39 330 1 44 41 46 52 55 106 311 305 238 205 273 249 254 252 132 75 100 134 146 177 182 187 191 195 205 208 210 213 216 216 218 219 217 217 217 217 217 216 217 217 216 216 217 217 217 216 216 216 217 216 213 213 213 212 213 214 212 212 214 216 216 215 213 213 215 214 212 210 207 204 201 199 197 197 195 194 196 197 197 198 200 198 193 190 185 180 177 175 175 175
157 114 104 85 6 318 48 89 13 15 31 66 147 244 305 319 312 259 264 299 245 121 96 130 152 168 192 192 196 197 201 208 208 209 212 216 217 221 223 220 221 222 220 220 220 219 217 216 217 218 217 218 217 216 216 218 218 215 215 216 215 214 215 214 213 215 217 218 218 216 214 216 217 217 215 211 208 206 203 200 199 197 197 199 201 200 199 202 204 201 198 195 188 183 179 178 178
120 121 100 12 352 339 42 90 327 1 91 112 135 187 309 350 305 224 238 342 78 145 142 175 186 202 205 203 206 201 212 217 211 208 209 213 215 218 220 221 222 223 222 223 223 221 219 218 218 218 217 217 218 218 218 217 219 218 216 218 219 218 218 216 215 215 218 220 220 219 216 216 218 220 219 216 212 209 207 204 201 200 201 201 202 202 201 202 204 203 202 199 194 188 184 181 181
114 111 113 335 359 11 339 56 283 353 132 194 115 54 303 245 236 229 198 9 51 140 187 210 216 230 226 221 222 214 225 225 215 215 218 218 218 217 220 223 223 223 224 226 225 223 222 222 220 220 218 217 217 218 219 218 219 220 218 219 219 220 220 220 218 216 218 221 222 222 219 217 217 221 221 219 217 214 211 207 205 203 203 203 203 203 202 202 203 202 200 198 196 193 189 185 183
118 71 104 359 9 349 315 31 325 110 144 244 129 253 278 249 251 259 293 350 77 156 225 232 235 244 247 238 234 236 236 229 220 222 224 225 224 222 224 227 225 225 228 227 226 226 226 225 222 222 221 220 219 219 219 219 219 220 220 220 220 220 221 222 222 220 219 221 222 224 223 220 218 220 221 219 218 218 215 211 209 207 206 205 203 203 204 204 204 203 201 198 197 195 192 189 187
91 62 61 52 82 266 302 341 144 143 170 74 117 197 269 269 274 275 296 304 164 208 237 237 248 251 252 245 237 245 242 231 229 230 230 230 229 228 229 232 230 229 230 229 229 229 227 226 224 223 222 222 221 220 220 221 221 221 221 221 221 221 222 222 223 224 223 222 222 223 223 223 221 220 221 221 220 219 217 213 211 208 206 205 204 204 204 205 206 206 204 200 196 195 194 190 190
41 105 320 352 161 258 309 317 151 152 254 58 103 211 269 275 277 276 317 55 163 208 244 249 255 251 247 246 239 246 251 241 238 240 238 236 235 233 234 235 235 233 233 232 232 231 229 228 226 224 224 223 222 222 222 223 224 224 223 223 223 223 223 223 224 224 225 224 223 223 223 223 223 223 222 223 222 221 220 218 214 210 206 205 205 204 205 206 207 206 205 204 199 194 192 190 189
359 106 186 254 169 266 316 321 279 142 174 24 76 212 260 290 280 275 334 61 118 207 265 268 254 253 251 246 242 242 255 255 247 244 243 241 239 238 237 238 238 238 237 237 235 233 232 231 228 227 227 226 225 224 224 224 225 225 226 226 226 227 226 225 225 224 225 225 223 224 225 224 223 223 223 223 223 222 222 223 221 216 212 210 207 206 206 207 206 204 201 202 203 197 193 190 187
302 55 140 217 184 201 290 287 306 46 113 287 8 231 249 275 285 285 298 36 31 307 279 273 260 260 256 250 254 249 249 255 249 244 242 241 242 241 241 242 242 242 241 241 239 237 236 234 231 230 229 229 228 227 226 225 226 228 230 231 231 230 230 229 228 228 230 229 225 224 226 227 226 224 222 221 222 221 222 224 222 216 213 212 210 208 207 205 203 202 200 199 202 201 195 190 187
190 179 158 207 202 194 242 256 249 48 75 222 5 275 263 269 280 286 284 322 329 282 270 272 267 261 259 255 254 252 250 251 249 247 247 246 246 245 244 243 243 243 242 241 240 238 237 235 233 232 230 229 229 229 228 226 226 228 230 232 232 233 234 234 232 232 232 231 229 227 225 225 226 228 227 224 224 225 224 223 219 213 211 209 208 207 204 202 201 200 201 198 197 198 196 191 187
170 175 148 154 171 222 240 252 262 156 116 230 221 233 264 272 278 281 283 314 301 276 284 278 267 262 261 258 253 255 252 252 252 253 256 254 253 252 250 246 243 242 242 240 239 237 235 235 233 232 231 229 227 226 225 224 223 225 227 228 230 231 233 234 233 234 232 228 227 228 228 227 228 231 231 228 228 229 228 226 221 216 212 208 207 207 204 204 204 203 202 198 192 187 189 189 187
137 131 111 138 167 243 255 264 302 37 142 253 233 241 267 269 273 270 276 313 298 271 274 266 262 262 260 257 260 257 250 254 262 259 257 257 258 258 254 249 243 239 239 237 236 235 234 234 232 231 231 227 225 223 222 221 219 220 222 225 228 229 230 231 232 234 234 232 229 228 229 230 232 231 229 228 229 229 226 223 222 222 219 215 212 211 209 209 208 205 201 198 194 186 183 187 186
97 129 122 110 172 225 255 248 313 358 149 266 3 319 271 260 266 268 268 280 263 246 246 252 255 256 260 260 260 260 261 273 280 269 259 255 257 257 253 248 239 236 237 234 233 233 232 231 230 232 231 226 225 225 223 222 222 222 223 226 229 230 230 231 232 234 235 235 232 231 231 230 230 229 228 228 229 231 229 224 222 220 217 214 212 210 210 210 208 204 199 195 193 190 188 187 186
83 110 125 132 198 244 285 287 326 9 57 274 345 334 279 261 259 261 254 248 248 242 235 241 247 252 256 250 252 261 271 279 284 280 272 262 258 255 251 245 239 239 239 234 232 231 229 228 229 231 231 229 228 227 225 225 226 226 227 230 232 232 233 233 234 234 235 234 233 233 233 232 232 232 234 233 230 229 230 229 226 221 217 214 211 209 209 210 208 204 201 196 191 190 190 189 189
88 105 126 164 247 158 256 293 330 8 64 269 318 306 281 281 278 269 261 252 263 266 251 245 240 241 247 248 251 255 259 268 280 284 281 280 272 259 248 243 239 236 235 234 231 229 228 228 230 230 231 231 230 228 227 227 227 227 228 231 234 234 236 237 236 235 234 234 234 234 233 233 233 233 235 236 234 231 230 230 227 222 220 219 215 212 209 209 208 205 203 200 194 188 186 189 192
48 137 138 159 203 174 191 311 342 358 22 23 352 316 291 314 330 291 292 314 288 283 290 272 249 240 252 267 265 252 251 258 268 277 283 287 277 267 258 247 240 233 231 233 232 230 230 231 232 231 231 231 231 230 228 226 225 225 225 227 230 232 234 234 233 233 233 233 235 236 236 235 235 235 233 232 234 235 235 235 233 229 225 221 218 214 210 209 209 209 206 203 202 198 192 190 192
293 226 175 174 174 165 170 21 49 33 356 348 17 1 293 310 320 278 300 338 305 303 308 273 263 264 264 269 266 257 257 254 252 263 269 272 272 275 274 259 241 237 236 236 234 232 232 233 234 232 232 232 232 231 229 226 225 224 223 223 224 225 228 229 230 232 233 235 237 238 238 238 237 238 238 236 236 238 240 240 238 236 235 229 222 217 214 211 210 211 209 207 206 205 199 190 190
218 234 173 152 132 129 139 113 81 83 263 315 42 104 265 301 289 264 304 338 305 298 295 282 285 289 263 253 265 267 261 255 252 258 263 274 279 277 278 270 251 244 244 241 236 234 234 235 236 234 234 233 232 231 229 228 226 226 226 227 227 227 228 232 234 236 238 239 241 241 242 241 240 240 240 240 239 239 240 239 237 236 234 230 225 221 218 218 218 216 213 210 207 204 201 195 193
207 224 130 123 119 129 140 114 100 198 242 330 12 114 237 292 263 266 320 330 300 296 295 296 298 289 276 260 260 260 257 252 254 271 288 294 284 273 274 279 267 255 254 250 241 237 236 236 237 236 236 235 234 233 231 230 229 229 229 230 232 232 234 238 240 241 242 243 244 245 246 245 244 243 242 241 240 239 238 236 239 240 233 226 223 224 226 228 226 219 213 209 206 204 205 205 201
228 190 121 121 122 127 122 99 95 24 9 318 314 119 195 272 276 302 334 299 294 299 295 301 307 302 298 285 269 261 264 258 252 266 281 291 294 283 273 281 282 266 260 255 248 243 240 238 237 237 237 236 235 235 234 233 232 232 232 232 234 236 238 241 243 245 246 246 247 247 248 248 246 244 242 241 241 241 240 239 240 242 238 230 226 229 232 230 224 216 210 207 206 207 210 210 208
181 139 99 76 74 77 74 89 99 44 13 254 255 206 195 266 288 311 356 252 270 283 289 296 306 309 308 304 302 301 305 299 271 259 259 289 326 338 316 323 324 290 265 254 248 245 242 240 240 239 239 239 238 238 237 236 234 234 234 235 236 239 240 242 244 247 247 248 248 248 248 248 245 243 241 241 240 239 238 238 237 238 238 237 238 238 232 225 220 214 210 208 207 209 211 213 213
134 111 75 56 34 34 45 52 75 56 307 254 246 253 188 265 282 267 204 205 221 248 307 312 322 338 341 334 335 352 5 358 325 301 295 327 12 37 43 44 27 3 324 274 257 249 247 245 244 243 243 242 241 241 240 240 238 236 237 238 240 242 242 243 244 245 246 246 247 248 248 248 246 243 241 240 240 239 238 239 239 239 239 239 241 240 232 223 219 214 212 211 210 212 215 217 217
108 92 85 78 2 11 26 2 38 115 258 261 262 272 175 222 263 250 234 253 233 201 274 304 319 334 332 339 3 6 356 336 326 335 335 345 10 24 32 42 30 10 350 324 293 270 261 256 253 250 247 245 244 244 243 243 241 240 241 242 244 245 245 245 245 246 247 246 247 249 249 248 247 245 243 241 240 240 241 242 243 243 242 237 235 235 233 228 223 217 214 213 214 217 220 220 218
75 94 95 89 358 7 352 314 348 217 247 271 281 251 207 232 246 253 257 259 241 215 219 257 288 298 298 322 359 353 338 324 322 329 327 329 336 342 354 6 7 2 346 333 310 289 277 267 263 259 255 251 248 246 245 245 244 244 245 245 246 248 248 247 248 249 249 249 250 251 250 250 249 248 246 245 244 243 242 243 244 244 244 242 237 234 231 227 223 220 218 218 220 223 224 222 221
119 133 124 123 128 106 265 270 283 258 257 285 286 247 252 269 257 250 251 242 223 223 223 235 250 264 279 308 335 327 317 302 289 299 310 306 305 319 332 339 345 351 345 332 317 305 293 284 278 274 270 262 253 250 248 247 247 248 248 248 249 249 249 250 250 252 253 253 253 253 253 253 253 253 252 253 252 250 247 246 246 246 246 246 243 240 235 228 225 224 224 226 228 229 229 226 225
170 156 130 144 159 160 207 219 210 244 277 304 295 254 205 214 260 249 244 255 267 250 246 253 260 269 285 309 313 306 303 293 292 303 295 284 294 313 327 335 342 343 336 325 314 307 301 298 292 286 284 275 263 256 252 250 251 251 250 250 250 250 251 252 253 254 255 255 255 255 256 256 256 257 257 259 260 258 256 253 251 251 250 246 244 243 241 237 234 231 230 231 232 233 233 229 226
239 122 106 162 186 143 140 183 172 172 323 308 265 237 214 211 278 278 264 283 282 265 278 288 294 315 335 325 304 302 297 290 312 326 302 299 313 322 329 334 336 334 326 319 314 311 309 306 300 295 294 288 275 263 257 257 256 255 253 252 252 252 252 252 253 255 256 256 257 258 259 259 260 261 261 261 261 260 260 258 255 255 253 249 245 243 242 241 239 235 233 234 236 238 235 229 226
164 130 170 211 173 114 113 210 69 81 256 272 224 248 293 330 295 295 317 305 294 290 288 286 299 340 330 308 295 293 292 291 310 312 290 300 323 333 341 340 334 330 325 320 318 315 311 306 302 298 295 292 285 272 262 260 258 257 256 255 254 253 253 254 255 257 258 259 260 260 261 262 261 262 263 262 262 261 260 260 257 255 255 254 250 245 243 242 240 239 239 239 240 239 234 229 227
125 178 206 187 115 88 108 183 0 44 241 274 266 238 283 330 277 316 359 311 283 281 277 285 321 3 348 351 340 301 289 295 299 296 288 300 325 337 344 342 333 328 320 311 307 304 302 300 299 295 292 292 289 279 268 263 261 259 260 259 258 257 256 258 259 260 261 261 261 261 262 263 263 264 264 263 263 262 260 260 257 255 256 257 253 249 247 245 243 242 242 241 240 237 232 229 228
131 181 172 118 138 168 97 147 185 154 237 281 300 275 259 200 226 299 342 195 244 269 279 285 294 352 30 24 2 325 312 315 314 321 325 323 332 338 337 329 317 306 294 286 285 291 296 297 294 291 290 290 287 280 271 266 264 262 262 262 261 261 260 261 261 262 263 262 262 263 263 264 264 264 264 263 262 262 261 260 257 256 260 261 255 250 248 246 245 244 242 241 240 237 233 231 231
66 109 102 80 132 164 156 149 163 173 202 263 309 317 272 224 213 212 216 212 218 240 265 273 260 186 96 203 311 334 349 5 336 331 320 306 304 306 298 286 285 283 281 278 282 300 311 305 295 290 288 286 283 278 272 271 271 267 265 264 263 263 262 263 263 263 263 263 264 264 264 265 265 265 264 263 262 261 260 260 258 257 261 262 258 253 249 247 246 244 243 241 239 236 233 233 233
117 124 155 175 78 107 155 161 122 139 165 192 289 296 265 247 214 190 207 219 213 205 196 210 201 158 186 221 218 318 22 59 332 284 269 270 271 267 257 260 275 286 286 282 289 313 323 313 300 294 291 290 289 285 280 279 280 275 270 266 265 265 265 265 265 264 264 265 265 264 264 265 266 265 264 263 262 261 260 260 258 258 260 260 258 258 255 250 247 245 243 241 240 238 236 235 234
166 175 186 179 153 124 148 243 244 118 158 171 187 268 263 241 207 195 207 215 201 172 145 135 141 159 201 240 237 260 1 49 317 273 261 273 287 296 299 298 300 298 299 314 334 342 336 323 309 297 295 298 300 299 294 291 288 282 277 273 270 269 267 266 266 265 266 266 266 266 266 266 266 266 265 263 263 262 260 259 257 257 259 257 257 260 260 254 249 246 244 242 241 239 238 237 235